GEFSNGP_500_meanwind_168.txt.gz
Wind_Speed
25 23 21 20 22 21 21 20 19 20 22 21 18 16 15 14 15 16 15 14 13 13 12 11 11 11 11 11 10 10 10 10 10 10 10 10 11 10 10 11 11 10 11 11
27 25 24 23 22 21 21 19 18 21 24 22 19 17 15 15 16 17 17 15 14 14 13 13 12 11 11 11 10 10 11 10 10 10 10 11 11 11 11 11 10 10 11 11
26 24 23 24 21 21 20 21 21 23 25 24 20 18 17 18 19 18 18 17 16 15 14 14 13 13 12 12 11 11 11 11 11 11 11 11 11 11 12 12 11 11 11 11
26 25 24 21 20 19 21 23 23 24 23 24 23 21 20 21 20 18 19 18 17 16 16 16 15 15 13 12 12 12 12 12 12 12 12 12 13 13 13 12 12 13 13 13
25 24 24 21 20 21 23 23 24 24 23 23 23 21 21 22 21 20 20 19 19 18 18 18 17 16 15 14 13 12 12 12 12 12 13 14 14 14 14 13 13 13 14 14
25 24 22 22 23 23 23 23 24 23 22 22 23 23 22 22 22 21 21 21 20 19 19 18 18 18 17 16 15 14 14 14 14 14 14 14 15 15 14 14 14 15 15 16
26 25 24 24 24 24 24 24 24 23 22 21 23 24 23 22 22 22 21 21 20 21 20 19 19 19 19 18 17 17 16 16 16 16 16 15 15 15 15 15 16 16 16 16
27 27 25 26 26 26 25 25 25 24 23 23 23 23 23 22 22 22 21 21 21 21 21 21 21 20 20 20 19 19 18 18 18 17 17 17 17 17 17 17 17 18 18 18
26 26 27 27 27 26 25 24 24 24 24 23 23 24 23 23 22 22 22 21 20 20 21 22 22 22 22 22 21 20 20 19 19 19 19 19 19 19 19 19 19 20 20 21
27 27 27 26 26 26 26 25 24 23 23 23 23 24 24 23 23 22 21 21 20 21 21 22 22 23 23 23 23 22 22 21 21 20 20 20 21 21 21 21 22 22 23 23
25 27 27 27 27 26 26 25 25 24 23 23 23 23 23 23 23 23 22 22 22 22 22 23 23 23 24 24 24 23 23 23 23 22 22 22 22 23 23 23 24 25 25 26
24 25 25 26 26 25 25 25 24 24 23 23 23 22 23 23 23 23 22 22 22 22 22 23 23 23 24 24 24 24 24 24 24 23 23 24 25 25 25 26 26 27 27 27
24 23 24 25 25 24 23 23 24 24 23 23 22 23 23 23 23 23 23 22 22 22 22 22 23 23 23 24 24 24 24 25 26 25 25 25 26 26 26 26 27 28 29 30
24 23 23 24 24 23 23 23 23 23 23 22 21 22 23 23 22 22 22 21 21 21 21 22 22 23 23 24 24 25 24 25 26 26 26 26 27 28 28 28 28 28 29 30
23 23 23 22 21 21 22 23 22 22 22 23 22 23 22 22 22 21 21 21 22 22 21 21 21 21 22 23 24 24 24 25 25 26 27 28 29 29 29 29 29 29 30 31
21 21 22 21 21 20 20 21 21 21 21 22 23 23 23 22 21 21 21 21 21 21 21 21 21 21 22 23 24 25 26 26 26 27 28 30 31 31 30 30 31 32 33 34
18 20 20 20 19 19 19 19 19 19 19 20 22 23 23 22 22 21 21 20 20 21 21 22 21 22 22 24 25 26 27 27 28 28 28 29 30 31 31 32 33 34 35 36
15 17 18 18 17 17 17 17 17 18 19 19 20 20 20 20 20 20 20 20 21 22 22 22 23 23 23 24 24 25 27 28 29 29 29 30 32 32 33 34 35 36 36 37
15 15 15 16 16 15 15 14 15 16 17 16 17 18 17 18 18 18 18 19 20 21 22 22 22 23 24 25 25 26 27 28 28 29 30 31 32 33 35 36 37 37 38 39
15 15 15 14 14 13 13 13 14 15 15 15 15 16 17 18 19 19 19 19 20 21 21 22 23 24 24 25 26 27 28 27 28 30 31 32 33 35 36 37 37 37 38 39
14 14 14 14 13 12 12 13 13 14 14 14 14 15 16 17 18 19 19 20 20 20 21 22 22 23 24 25 26 26 26 27 29 30 31 32 33 34 35 35 36 37 39 40
14 13 14 13 12 12 12 12 13 13 13 13 14 14 15 15 16 17 17 18 19 20 21 22 23 24 24 24 24 25 26 28 29 30 31 32 33 33 34 36 38 40 41 42
14 14 14 13 13 13 13 14 14 14 13 13 13 14 15 16 17 17 19 19 20 21 22 23 23 23 24 24 25 26 27 28 29 30 31 33 34 35 36 38 39 40 41 42
13 13 13 13 12 12 12 12 12 12 13 13 14 14 15 16 17 17 19 20 21 22 22 22 22 23 24 26 27 27 28 30 31 32 33 34 36 37 38 39 41 41 42 43
12 13 13 12 12 11 11 12 12 12 13 14 15 16 17 18 19 20 20 20 21 21 21 22 22 24 25 27 28 29 30 32 33 34 36 37 38 39 40 41 41 42 42 42
13 12 13 13 12 12 13 13 14 14 14 14 15 16 16 17 17 17 17 18 19 20 22 23 23 24 25 27 28 30 31 33 34 35 36 36 37 38 38 39 40 40 40 40
12 12 13 13 13 14 14 14 15 15 15 15 15 15 16 16 16 17 18 19 20 21 22 23 25 26 28 29 30 32 33 33 34 34 34 35 35 36 36 37 37 37 37 37

GEFSNGP_500_meanwind_174.txt.gz
Wind_Speed
27 26 26 26 25 24 24 24 24 22 21 19 18 17 15 15 14 13 12 10 9 11 11 12 13 14 14 13 13 13 13 14 14 14 15 15 15 14 14 15 15 15 15 14
28 27 27 27 27 26 25 24 24 23 22 20 18 17 16 15 13 13 13 11 10 10 11 12 14 14 14 14 14 13 14 14 15 15 15 15 14 14 14 14 16 15 14 14
29 28 28 28 26 26 25 24 23 21 21 21 19 17 16 13 12 11 12 11 11 10 10 12 12 14 15 14 14 14 14 14 14 15 15 15 15 14 14 14 14 14 15 14
29 28 29 26 26 25 24 23 23 22 20 19 18 17 15 14 13 12 12 11 11 10 10 11 13 13 14 14 14 14 14 14 15 14 15 15 15 15 15 15 15 15 15 15
30 29 29 27 27 27 26 25 24 23 20 18 17 17 15 14 13 13 12 13 13 12 12 13 14 15 15 15 15 14 15 15 15 15 14 15 15 16 16 16 16 16 16 16
30 30 28 26 26 27 26 26 24 22 21 20 19 18 16 15 14 13 13 14 14 14 14 15 15 15 16 16 16 16 16 16 16 16 15 15 16 15 14 15 16 16 16 16
30 29 28 26 26 26 25 25 23 20 20 19 18 18 18 16 15 14 14 15 15 15 15 16 16 17 17 17 17 17 17 17 17 17 17 16 16 15 16 16 16 16 17 17
31 30 29 27 27 26 24 22 21 21 21 20 19 19 19 17 16 15 15 15 15 15 16 16 17 18 18 18 19 19 19 19 19 19 18 18 17 17 17 17 18 18 18 19
29 28 27 26 25 26 25 23 22 21 20 20 19 20 18 17 16 16 16 16 16 16 17 17 18 19 19 19 19 19 19 20 21 21 21 21 20 19 19 19 19 19 20 20
27 26 26 25 25 24 23 23 22 21 21 20 20 19 19 18 18 17 17 17 18 18 19 19 20 20 21 20 20 19 20 21 22 23 23 23 23 22 22 22 22 22 21 22
25 25 24 24 24 24 23 22 22 22 22 22 21 20 19 19 19 19 19 19 18 18 19 20 21 21 21 21 21 21 21 22 23 24 24 24 24 24 25 25 24 24 24 24
24 24 25 24 23 23 23 23 23 22 22 22 22 21 20 19 19 20 20 20 19 20 20 21 21 21 22 22 23 23 23 23 24 24 25 26 26 26 26 27 26 26 26 25
24 24 23 23 23 22 22 22 22 21 21 21 21 21 20 20 19 20 20 20 20 20 21 22 22 22 23 23 23 23 24 24 24 25 26 26 27 27 27 28 28 28 28 27
23 22 21 20 21 21 21 20 20 21 21 20 20 20 20 20 20 20 20 20 20 20 21 22 22 23 23 24 24 24 25 25 25 25 26 27 27 28 29 29 29 29 29 28
21 21 21 20 20 20 20 19 19 20 20 20 20 20 20 20 19 19 20 20 20 20 20 20 21 22 23 23 23 23 23 24 25 25 26 27 28 28 29 30 30 30 30 30
20 20 20 19 19 19 19 18 18 19 19 19 19 19 19 18 18 19 19 19 20 20 20 20 20 21 21 21 21 22 22 22 23 24 25 26 27 28 29 30 30 30 30 31
18 19 18 18 18 17 17 17 16 16 16 17 17 17 17 17 18 18 19 19 20 20 20 21 21 21 21 22 23 23 23 23 24 24 25 26 27 28 29 30 31 31 31 32
16 17 16 15 16 16 15 15 15 15 15 15 16 17 17 17 17 17 18 18 19 20 20 20 21 21 22 23 23 23 24 25 25 26 26 27 28 28 30 31 32 32 33 33
17 16 15 15 14 15 15 15 15 15 14 14 14 16 15 16 17 17 16 17 17 17 19 20 20 21 21 22 22 22 24 25 25 26 26 27 28 30 31 32 33 33 34 35
16 16 15 14 14 13 13 12 13 13 13 13 14 14 15 16 16 16 17 17 17 17 18 19 19 20 20 21 21 22 23 24 25 27 28 29 30 31 32 32 33 34 35 35
16 16 16 14 13 13 12 11 11 11 11 12 13 13 13 14 15 16 16 16 16 17 17 17 18 19 20 20 21 22 23 25 26 26 27 28 29 30 31 31 32 34 35 35
15 15 15 14 13 13 13 12 12 11 11 11 12 12 11 11 12 13 14 15 15 16 18 19 19 19 20 21 22 23 24 26 26 27 27 28 28 29 30 31 33 33 34 35
15 14 13 13 13 12 12 12 11 11 10 10 10 11 11 11 11 12 13 15 16 16 17 18 20 21 22 23 23 24 25 25 26 27 28 28 28 29 31 33 34 34 35 37
13 13 13 12 12 11 11 11 11 11 10 10 10 10 10 11 12 13 14 15 16 17 18 19 20 21 22 23 24 24 25 26 26 27 28 29 31 32 33 34 36 37 38 40
13 13 12 11 10 10 9 9 10 10 11 11 11 11 11 12 13 14 15 16 18 18 18 19 20 21 21 22 24 25 25 26 27 28 30 31 32 33 35 36 37 39 40 41
13 13 12 11 10 10 9 10 10 10 10 10 10 11 12 13 14 15 15 16 17 18 19 20 21 21 22 23 23 24 26 27 29 30 31 33 34 35 36 38 38 39 40 41
11 11 10 10 9 9 9 9 10 10 10 11 12 12 13 13 14 15 16 17 18 19 20 20 21 22 23 24 25 25 27 28 29 30 31 33 34 35 36 37 37 38 39 40

GEFSNGP_500_meanwind_180.txt.gz
Wind_Speed
27 27 28 27 27 26 24 22 20 18 16 15 14 13 13 13 13 13 13 14 14 14 15 15 15 16 17 17 17 16 17 17 18 18 18 17 17 17 17 16 16 16 16 16
28 28 28 27 27 26 25 23 21 18 17 15 14 14 14 14 14 14 14 14 14 14 14 15 16 17 17 17 17 17 17 18 18 18 18 18 18 17 17 17 17 16 17 16
27 28 28 28 26 25 24 23 22 20 18 16 15 14 13 12 11 12 13 13 13 13 14 16 17 17 18 18 18 19 18 18 18 18 18 18 18 17 17 18 17 17 17 17
27 27 28 26 25 24 23 22 20 18 17 16 16 15 13 12 11 12 13 13 13 14 14 16 17 18 17 18 18 17 18 18 18 18 18 18 18 18 18 18 18 18 17 16
28 28 27 25 25 24 23 22 21 19 18 17 17 16 15 15 14 14 14 13 13 13 14 15 16 17 17 17 17 17 17 18 18 19 18 18 18 18 17 17 17 17 17 17
29 29 28 26 25 24 23 23 21 21 20 18 18 17 17 17 16 16 15 14 14 13 14 15 16 16 17 17 17 18 18 18 18 18 18 19 19 18 18 18 18 18 18 18
29 30 29 27 26 25 23 21 21 20 20 19 18 18 18 18 17 17 16 16 15 15 16 16 16 16 17 16 16 18 19 19 19 19 18 19 19 19 19 19 19 20 20 20
28 29 29 28 26 25 23 22 22 21 20 19 18 17 18 18 18 18 17 17 17 16 17 17 17 17 17 18 18 18 19 20 19 20 19 19 20 20 21 21 21 21 21 21
29 29 28 27 26 25 24 23 22 21 21 20 19 18 18 18 18 18 18 18 18 18 18 18 18 18 18 19 20 20 20 20 20 20 21 21 21 21 20 21 21 22 22 22
30 28 27 26 25 25 24 24 23 22 22 22 21 20 20 19 18 18 18 19 19 19 19 19 19 20 20 20 20 20 21 21 21 20 21 21 21 22 22 23 23 24 24 24
28 27 27 27 25 24 23 23 22 21 22 22 22 21 20 19 18 18 19 20 20 20 20 20 20 21 20 20 20 20 21 21 22 22 22 22 23 23 24 25 25 25 25 26
27 26 26 26 25 26 25 24 23 22 21 21 21 20 20 20 20 19 19 19 19 19 21 22 22 22 22 22 21 21 21 21 22 22 23 24 25 25 26 27 28 28 28 29
26 25 25 26 26 26 26 25 24 23 22 21 21 20 20 20 20 19 19 19 19 20 21 22 22 22 23 23 23 22 22 22 22 23 24 25 26 27 27 28 29 30 30 31
24 24 24 25 25 25 25 24 24 24 23 22 21 21 20 20 20 20 20 20 20 21 21 22 22 22 23 23 23 24 24 24 24 24 25 26 27 27 29 30 30 31 32 33
23 23 22 22 24 24 24 24 23 23 23 22 21 20 20 19 20 20 19 19 19 20 21 22 22 22 23 23 24 24 25 24 24 25 25 26 27 27 28 30 31 32 34 35
22 22 21 20 20 20 20 21 21 20 21 21 20 19 18 18 18 18 18 18 18 18 19 20 20 21 22 23 23 24 24 24 24 24 25 26 27 28 28 28 29 30 31 33
21 22 21 20 20 18 18 19 19 19 19 20 19 18 17 17 17 17 17 17 17 17 17 18 19 20 21 22 23 23 23 23 24 25 25 26 27 28 29 29 29 29 30 30
22 21 20 19 19 18 17 17 18 18 17 17 17 17 17 17 16 16 17 17 17 17 18 18 19 20 20 21 22 22 22 23 23 24 25 26 27 28 29 30 30 31 33 33
20 20 19 18 17 17 16 16 16 17 17 16 15 15 14 14 15 15 16 16 17 18 19 18 19 19 21 21 22 23 23 23 24 25 26 27 28 28 29 30 31 32 33 34
18 18 18 18 17 17 16 15 15 14 14 13 13 14 14 14 14 15 16 17 17 17 18 19 19 19 21 21 21 23 24 25 25 26 26 27 28 30 31 32 32 33 34 36
17 17 17 17 17 17 16 15 15 14 13 13 13 13 13 13 13 14 16 16 17 17 18 18 19 20 20 21 22 23 24 25 25 26 27 28 29 30 31 32 33 34 35 37
16 15 16 16 16 16 14 13 13 13 12 13 13 13 13 13 13 14 14 15 15 17 18 19 19 19 20 21 22 23 24 25 26 27 28 29 30 32 34 34 35 36 37 38
15 15 15 15 15 14 14 13 12 12 11 11 11 12 11 12 13 13 14 14 15 16 17 18 19 19 20 21 22 23 25 25 26 27 29 30 32 33 34 35 35 36 36 37
15 15 15 14 13 12 12 12 12 11 11 10 11 11 11 12 13 14 15 16 16 17 18 18 19 20 21 22 22 23 24 25 27 28 29 30 31 31 32 33 34 35 37 38
14 15 14 12 12 11 11 10 10 9 9 10 10 11 11 12 13 14 15 15 15 16 16 17 18 18 19 21 22 23 25 26 26 28 29 29 30 31 32 33 34 35 37 38
15 14 13 12 11 11 10 10 9 9 9 9 10 10 11 12 12 12 13 13 14 14 15 17 18 18 19 21 22 23 24 25 27 27 28 29 30 32 33 34 35 36 37 39
14 13 13 12 11 11 10 10 9 9 10 10 10 10 11 11 11 12 13 13 14 15 16 16 18 19 20 22 23 24 24 25 26 28 29 30 31 32 33 34 36 37 38 38

GEFSNGP_500_meanwind_186.txt.gz
Wind_Speed
27 26 25 26 25 25 24 22 20 18 16 15 15 15 15 15 14 14 14 15 15 16 16 16 16 16 16 17 16 17 17 17 18 17 17 17 17 17 17 15 15 16 16 17
27 27 26 26 26 26 25 23 21 20 18 16 15 15 15 14 14 14 14 14 15 15 16 16 16 17 17 17 18 18 18 18 18 18 19 18 18 18 18 17 16 16 16 16
27 28 28 29 27 26 25 23 22 21 19 17 16 15 14 14 15 15 14 14 15 15 15 16 16 16 17 18 18 18 19 18 18 19 19 19 20 20 19 18 18 17 17 17
28 30 31 29 27 26 25 24 22 21 20 19 17 16 16 15 15 14 15 15 15 16 16 16 16 16 16 17 17 18 18 18 18 20 20 21 21 21 20 20 19 18 18 18
29 29 29 28 27 26 25 23 22 22 21 20 18 17 16 16 15 15 15 15 16 16 15 16 16 17 16 17 17 18 19 18 19 19 20 21 21 21 21 20 20 20 19 19
31 29 29 28 26 25 24 23 22 22 21 20 19 18 18 17 16 15 16 15 15 15 15 15 16 17 18 17 17 18 19 20 20 20 20 20 20 20 20 20 21 21 21 21
30 29 28 27 25 24 25 23 22 22 22 22 21 20 19 18 17 16 16 16 15 16 16 16 16 16 16 16 17 17 18 18 19 19 20 20 20 20 20 20 20 20 20 20
30 28 29 27 26 26 24 22 21 22 23 23 21 20 19 19 18 18 17 17 17 17 16 16 16 16 16 16 16 16 17 17 18 18 19 19 19 20 20 19 19 19 20 21
31 30 28 27 26 25 23 23 22 22 22 22 22 21 20 19 19 19 18 18 18 17 17 17 17 16 16 16 16 16 17 17 17 17 19 19 20 20 20 20 21 22 22 22
29 29 27 27 26 25 24 23 22 22 22 21 21 21 21 21 20 20 19 20 19 18 18 18 17 17 18 18 18 18 18 18 18 18 19 19 20 21 21 22 23 24 24 24
28 27 27 27 26 26 26 25 23 22 21 21 21 20 21 21 22 22 21 20 20 20 19 19 20 19 19 19 18 19 19 18 19 19 20 20 21 22 22 23 23 24 25 25
29 28 26 25 26 26 26 25 24 23 22 22 21 21 21 21 21 21 21 21 21 21 21 20 20 20 20 21 20 19 19 19 19 20 20 21 21 22 23 23 24 24 26 26
28 28 27 26 26 25 25 25 24 23 22 22 21 21 21 21 21 20 20 20 21 21 21 21 21 20 20 21 21 21 21 20 20 20 21 21 22 23 23 24 25 25 26 27
28 28 27 27 27 26 26 25 25 24 23 23 22 22 22 22 21 21 21 21 20 21 21 22 21 22 21 21 21 21 21 21 21 22 22 22 23 24 25 25 26 26 27 29
27 27 27 27 27 26 26 26 25 24 24 24 23 23 23 22 21 21 21 20 20 20 20 21 22 22 22 22 22 21 21 22 22 22 23 24 25 25 26 26 27 28 29 30
26 26 26 27 26 25 25 25 24 24 24 23 23 23 23 23 22 21 21 20 20 20 19 19 20 20 20 21 22 22 22 22 23 24 24 25 25 26 27 28 28 29 30 31
25 26 26 25 25 25 24 24 23 23 22 22 22 21 21 21 21 21 21 21 20 21 20 20 20 20 21 21 22 22 23 23 23 24 25 25 26 27 28 29 30 32 32 33
24 25 24 24 24 24 23 23 22 22 22 23 22 21 21 20 20 21 21 20 20 20 20 20 20 20 21 22 23 23 24 24 24 25 26 26 27 28 29 30 31 32 33 34
23 23 22 23 23 22 21 21 21 21 20 21 21 21 21 21 20 20 20 20 20 19 19 19 19 19 21 22 24 24 25 25 25 26 26 27 28 29 30 31 32 33 34 35
22 22 22 22 22 22 21 20 19 18 18 18 19 20 20 19 19 19 19 19 19 19 20 19 19 20 21 22 23 24 24 25 25 26 26 27 28 29 30 31 32 33 33 33
22 21 20 20 20 19 19 18 18 18 17 18 18 18 18 18 17 17 17 17 17 18 19 19 18 19 19 20 22 23 24 25 25 26 27 27 28 29 30 31 32 32 33 34
21 20 20 19 18 18 18 17 17 16 16 16 16 16 15 15 15 15 16 16 16 16 17 18 18 18 19 20 21 22 23 25 26 27 27 28 28 29 30 31 31 32 33 34
20 19 19 18 18 18 17 16 16 15 16 15 14 14 14 14 14 13 14 14 15 15 16 17 18 18 19 20 21 22 23 25 26 27 27 28 28 29 30 31 31 32 33 34
19 19 19 18 18 17 16 15 14 15 15 14 14 13 13 13 13 13 14 14 14 15 16 17 17 18 19 21 21 22 23 24 26 26 27 28 28 29 29 30 31 32 33 34
17 17 17 17 17 15 15 14 13 13 13 13 13 13 13 13 13 14 14 14 15 15 16 17 18 19 20 21 21 22 22 23 24 25 26 27 28 29 30 31 31 32 34 35
15 15 15 15 14 13 13 13 13 13 12 12 12 11 11 12 13 14 14 15 16 16 17 17 17 18 19 19 20 21 21 22 23 25 26 27 28 29 31 32 33 34 35 35
14 14 13 13 13 13 13 13 12 12 11 11 11 10 10 10 11 12 12 13 13 13 14 15 15 16 18 20 21 22 23 24 25 26 27 28 29 30 31 32 32 33 34 34